Notices

What's New in latest Release from April 7th, 2021:

- Updated Glossary, including Speed of Maximum Gust, and Total Hourly Precipitation

- Updated national and regional climate services offices contacts and prices information

- Addition of station inventory lists for 1981-2010, 1971-2000, and 1961-1990 Normals.

If you haven't already, please take our survey and provide feedback about our website: https://eccc.sondage-survey.ca/f/LanguageSelection.aspx?s=442ca660-fcf1-47c0-95a9-59707d6fd709

Hourly Data Report for March 15, 2021

OTTAWA INTL A
ONTARIO
Current Station Operator: NAVCAN

45°19'00.000" N
75°40'00.000" W
114.90 m
6106001
71628
YOW

Download Data

Hourly Data (March 2021)
Hourly Data Report for March 15, 2021
TIME
LST
Temp Definition
°C
Dew Point Definition
°C
Rel Hum Definition
%
Precip. Amount Definition
mm

Wind Dir Definition
10's deg

Wind Spd Definition
km/h
Visibility Definition
km
Stn Press Definition
kPa
Hmdx Definition


Wind Chill Definition


Weather Definition


00:00 -11.6 -20.7 47   33 37 24.1 101.47   -23 LegendNANA
01:00 -12.2 -21.3 47   33 34 24.1 101.51   -23 Clear
02:00 -12.8 -21.2 50   33 29 24.1 101.55   -23 LegendNANA
03:00 -13.3 -21.1 52   33 32 24.1 101.57   -24 LegendNANA
04:00 -13.6 -20.7 56   33 29 24.1 101.63   -24 Clear
05:00 -14.0 -20.6 58   32 21 24.1 101.71   -23 LegendNANA
06:00 -14.4 -20.9 59   32 21 24.1 101.76   -24 LegendNANA
07:00 -14.4 -21.0 58   32 27 24.1 101.86   -25 Clear
08:00 -13.8 -21.2 54   32 27 24.1 101.93   -24 LegendNANA
09:00 -13.2 -21.2 51   31 25 24.1 101.98   -23 LegendNANA
10:00 -12.2 -21.0 49   33 25 24.1 101.96   -22 Mainly Clear
11:00 -11.6 -20.2 49   27 19 24.1 101.91   -20 LegendNANA
12:00 -10.2 -19.9 45   28 19 24.1 101.82   -18 LegendNANA
13:00 -9.0 -19.2 44   27 22 24.1 101.77   -17 Clear
14:00 -7.6 -18.7 41   28 17 24.1 101.70   -14 LegendNANA
15:00 -6.3 -18.8 37   30 21 24.1 101.63   -13 LegendNANA
16:00 -5.9 -18.8 36   29 13 24.1 101.54   -11 Clear
17:00 -5.8 -18.2 37   25 21 24.1 101.54   -13 LegendNANA
18:00 -6.1 -18.3 38   26 16 24.1 101.52   -12 LegendNANA
19:00 -6.9 -16.7 46   26 9 24.1 101.53   -11 Clear
20:00 -7.5 -17.0 47   21 5 24.1 101.47   -10 LegendNANA
21:00 -7.6 -17.9 44   21 8 24.1 101.41   -12 LegendNANA
22:00 -9.1 -14.5 65   36 2 24.1 101.32   -10 Clear
23:00 -10.3 -16.6 60   19 7 24.1 101.31   -14 LegendNANA

Notes on Data Quality.

Legend

  • E = Estimated
  • M = Missing
  • NA = Not Available*
  • [empty] = Indicates an unobserved value
Date modified: